DateTimeUTC,F1_A11,F1_S11,BsB_S11,BsG_S11,BsR_S11,BbsB_S11,BbsG_S11,BbsR_S11,BaB_A11,BaG_A11,BaR_A11,Tu_S11,T_S11,Uu_S11,U_S11,P_S11,T1_A11
2021-11-27T22:00:00Z,00000200,21000000,,,,,,,-000.38,-000.21,0000.31,18.4,25.5,,00.0,0636.1,30.8
2021-11-27T22:01:00Z,00000200,21000000,,,,,,,0000.13,0000.08,-000.19,18.4,25.5,,00.0,0636.1,30.9
2021-11-27T22:02:00Z,00000200,21000000,,,,,,,0000.06,0000.15,-000.02,18.4,25.5,,00.0,0636.1,30.9
2021-11-27T22:03:00Z,00000200,61000000,,,,,,,0000.18,-000.20,0000.15,18.5,25.5,,00.0,0636.1,30.9
2021-11-27T22:04:00Z,00000200,41000000,0001.61,0000.66,0000.31,0000.48,0000.27,0000.30,0000.66,0000.66,0000.38,18.9,25.5,,00.0,0636.9,30.9
2021-11-27T22:05:00Z,00000200,01000000,0001.25,0001.21,0000.63,0000.35,0000.44,0000.18,0000.04,0000.09,-000.08,19.0,25.4,,00.0,0637.0,30.9
2021-11-27T22:06:00Z,00000200,01000000,0001.46,0001.32,0000.59,0000.35,0000.15,-000.10,0000.18,0000.45,0000.15,19.0,25.5,,00.0,0637.0,30.9
2021-11-27T22:07:00Z,00000200,01000000,0002.27,0001.34,0000.49,0000.17,0000.34,0000.18,0000.51,0000.22,0000.33,19.1,25.5,,00.0,0637.0,30.9
2021-11-27T22:08:00Z,00000200,01000000,0001.22,0001.28,0000.92,-000.25,0000.49,0000.23,0000.05,-000.21,0000.14,19.1,25.5,,00.0,0637.0,30.9
2021-11-27T22:09:00Z,00000200,01000000,0001.57,0001.27,0000.62,0000.55,0000.70,0000.72,0000.52,0000.66,0000.16,19.2,25.5,,00.0,0636.9,30.9
2021-11-27T22:10:00Z,00000200,01000000,0001.58,0001.34,0000.44,0000.57,0000.68,-000.11,0000.28,0000.48,0000.24,19.1,25.5,,00.0,0636.9,30.9
2021-11-27T22:11:00Z,00000200,01000000,0001.63,0000.96,0000.55,0000.41,-000.02,0000.46,0000.48,0000.13,0000.29,19.1,25.5,,00.0,0636.9,30.9
2021-11-27T22:12:00Z,00000200,01000000,0001.22,0001.06,0000.44,0000.64,0000.38,0000.30,0000.19,0000.21,0000.17,19.1,25.5,,00.0,0636.9,30.9
2021-11-27T22:13:00Z,00000200,01000000,0002.19,0001.09,0000.45,0000.07,0000.10,0000.38,0000.54,0000.43,0000.13,19.1,25.5,,00.0,0636.9,30.9
2021-11-27T22:14:00Z,00000200,01000000,0001.26,0000.68,0000.68,0000.74,0000.37,0000.18,0000.01,-000.07,0000.31,19.2,25.5,,00.0,0636.9,30.9
2021-11-27T22:15:00Z,00000200,01000000,0001.41,0000.67,0000.56,0000.03,0000.18,0000.09,0000.63,0000.43,0000.04,19.2,25.5,,00.0,0636.9,30.9
2021-11-27T22:16:00Z,00000200,01000000,0001.27,0000.81,0000.53,0000.59,0000.15,0000.20,0000.27,0000.16,0000.19,19.3,25.6,,00.0,0636.9,30.9
2021-11-27T22:17:00Z,00000200,01000000,0001.46,0000.93,0000.39,0000.61,0000.24,0000.13,0000.35,0000.54,0000.29,19.3,25.6,,00.0,0636.9,30.9
2021-11-27T22:18:00Z,00000200,01000000,0001.26,0000.42,0000.48,-000.15,0000.12,0000.02,0000.41,0000.24,0000.17,19.4,25.6,,00.0,0636.9,30.9
2021-11-27T22:19:00Z,00000200,01000000,0002.10,0000.88,0000.45,-000.16,0000.28,0000.44,-000.03,0000.13,0000.17,19.4,25.7,,00.0,0636.9,30.9
2021-11-27T22:20:00Z,00000200,01000000,0002.11,0001.40,0000.92,0000.40,0000.42,0000.33,0000.52,0000.27,0000.41,19.5,25.7,,00.0,0636.9,30.9
2021-11-27T22:21:00Z,00000200,01000000,0001.87,0001.52,0000.92,0000.38,0000.24,0000.12,-000.07,0000.05,-000.06,19.5,25.7,,00.0,0636.9,30.9
2021-11-27T22:22:00Z,00000200,01000000,0001.62,0001.14,0000.87,-000.36,0000.13,0000.08,0000.63,0000.62,0000.04,19.4,25.7,,00.0,0636.9,30.9
2021-11-27T22:23:00Z,00000200,01000000,0002.61,0001.74,0000.92,0000.42,0000.35,0000.08,0000.34,0000.11,0000.46,19.3,25.7,,00.0,0636.9,30.9
2021-11-27T22:24:00Z,00000200,01000000,0002.16,0001.80,0001.04,0000.43,0000.47,-000.22,0000.72,0000.58,0000.31,19.2,25.7,,00.0,0636.9,30.9
2021-11-27T22:25:00Z,00000200,01000000,0002.29,0001.89,0001.24,0000.12,0000.38,0000.23,0000.47,0000.75,0000.43,19.2,25.7,,00.0,0636.9,30.9
2021-11-27T22:26:00Z,00000200,01000000,0001.94,0001.62,0001.08,0000.31,0000.43,0000.29,0000.69,0000.35,0000.51,19.1,25.6,,00.0,0636.9,30.9
2021-11-27T22:27:00Z,00000200,01000000,0002.08,0002.00,0001.15,-000.17,0000.54,0000.36,0000.25,0000.55,-000.16,19.1,25.6,,00.0,0636.9,30.9
2021-11-27T22:28:00Z,00000200,01000000,0002.34,0001.82,0001.16,-000.47,0000.43,0000.36,0000.58,0000.48,0000.38,19.1,25.6,,00.0,0636.9,30.9
2021-11-27T22:29:00Z,00000200,01000000,0002.44,0001.79,0000.95,0000.40,0000.32,0000.48,0000.71,0000.26,0000.36,19.2,25.6,,00.0,0637.0,30.9
2021-11-27T22:30:00Z,00000200,01000000,0001.86,0001.63,0001.07,0000.26,0000.75,0000.06,0000.39,0000.33,0000.35,19.3,25.6,,00.0,0637.0,30.9
2021-11-27T22:31:00Z,00000200,01000000,0002.71,0001.49,0000.98,0000.49,0000.45,0000.31,0000.38,0000.64,0000.20,19.3,25.7,,00.0,0637.0,30.9
2021-11-27T22:32:00Z,00000200,01000000,0002.23,0001.53,0000.96,0000.31,0000.42,0000.51,0000.43,0000.50,0000.15,19.3,25.7,,00.0,0637.0,30.9
2021-11-27T22:33:00Z,00000200,01000000,0002.37,0001.57,0001.17,0000.03,0000.29,0000.43,-000.02,-000.05,0000.22,19.4,25.7,,00.0,0637.0,30.9
2021-11-27T22:34:00Z,00000200,01000000,0002.06,0001.74,0000.96,0000.34,0000.61,0000.50,0000.84,0000.25,0000.31,19.5,25.7,,00.0,0637.0,31.0
2021-11-27T22:35:00Z,00000200,01000000,0002.22,0001.30,0000.69,0000.63,0000.26,0000.17,0000.27,0000.75,0000.24,19.5,25.8,,00.0,0637.0,30.9
2021-11-27T22:36:00Z,00000200,01000000,0001.33,0001.43,0000.80,0000.75,0000.50,0000.17,0000.22,-000.07,-000.06,19.5,25.8,,00.0,0637.0,30.9
2021-11-27T22:37:00Z,00000200,01000000,0001.69,0001.34,0000.82,0000.15,0000.18,0000.75,0000.21,0000.14,0000.34,19.5,25.8,,00.0,0636.9,30.9
2021-11-27T22:38:00Z,00000200,01000000,0001.78,0001.38,0000.60,-000.10,0000.24,0000.17,0000.48,0000.51,0000.04,19.4,25.8,,00.0,0636.9,30.9
2021-11-27T22:39:00Z,00000200,01000000,0001.60,0001.17,0000.60,-000.17,0000.26,0000.43,0000.18,0000.21,0000.28,19.3,25.8,,00.0,0636.8,30.9
2021-11-27T22:40:00Z,00000200,01000000,0001.39,0001.58,0000.56,0000.03,0000.46,0000.19,0000.54,0000.31,0000.29,19.3,25.7,,00.0,0636.8,30.9
2021-11-27T22:41:00Z,00000200,01000000,0002.75,0001.36,0000.54,0000.03,0000.43,0000.28,0000.43,0000.63,0000.28,19.2,25.7,,00.0,0636.8,30.9
2021-11-27T22:42:00Z,00000200,01000000,0001.96,0001.25,0001.17,0000.28,0000.61,0000.09,0000.28,0000.40,0000.09,19.2,25.7,,00.0,0636.8,30.9
2021-11-27T22:43:00Z,00000200,01000000,0002.28,0001.59,0000.48,0000.36,-000.05,0000.08,0000.58,0000.43,0000.39,19.3,25.7,,00.0,0636.8,30.9
2021-11-27T22:44:00Z,00000200,01000000,0001.68,0001.50,0000.79,-000.59,0000.31,0000.35,0000.71,0000.25,0000.17,19.3,25.7,,00.0,0636.8,30.9
2021-11-27T22:45:00Z,00000200,01000000,0002.50,0001.51,0000.56,-000.10,0000.56,0000.22,0000.25,0000.57,0000.55,19.3,25.7,,00.0,0636.8,30.9
2021-11-27T22:46:00Z,00000200,01000000,0000.98,0001.14,0000.65,0000.84,0000.17,0000.30,0000.59,0000.17,0000.18,19.4,25.7,,00.0,0636.8,30.9
2021-11-27T22:47:00Z,00000200,01000000,0001.53,0001.45,0000.74,0000.44,0000.30,-000.37,0000.22,0000.31,0000.22,19.4,25.7,,00.0,0636.8,30.9
2021-11-27T22:48:00Z,00000200,01000000,0001.72,0001.13,0000.76,-000.01,0000.23,0000.15,0000.35,0000.38,0000.25,19.5,25.8,,00.0,0636.8,30.9
2021-11-27T22:49:00Z,00000200,01000000,0002.44,0001.11,0000.35,0000.57,0000.18,0000.31,0000.10,-000.13,0000.22,19.5,25.8,,00.0,0636.8,30.9
2021-11-27T22:50:00Z,00000200,01000000,0001.55,0001.37,0000.71,0000.06,0000.25,0000.16,0000.38,0000.66,0000.31,19.5,25.8,,00.0,0636.8,31.0
2021-11-27T22:51:00Z,00000200,01000000,0001.71,0001.40,0000.38,0000.35,0000.58,0000.26,0000.45,0000.02,-000.06,19.4,25.8,,00.0,0636.8,30.9
2021-11-27T22:52:00Z,00000200,01000000,0001.33,0001.13,0001.06,-000.72,0000.27,0000.06,0000.32,0000.36,0000.16,19.3,25.8,,00.0,0636.8,30.9
2021-11-27T22:53:00Z,00000200,01000000,0001.51,0001.01,0000.96,0000.34,0000.14,0000.17,0000.14,0000.35,0000.45,19.2,25.7,,00.0,0636.8,30.9
2021-11-27T22:54:00Z,00000200,01000000,0001.69,0000.67,0000.65,-000.08,0000.31,0000.24,0000.42,0000.55,0000.08,19.2,25.7,,00.0,0636.8,30.8
2021-11-27T22:55:00Z,00000200,01000000,0001.79,0001.17,0000.64,0000.33,0000.23,0000.32,0000.29,0000.07,0000.08,19.1,25.7,,00.0,0636.9,30.8
2021-11-27T22:56:00Z,00000200,01000000,0000.89,0001.16,0000.62,-000.43,0000.61,-000.03,0000.57,0000.39,0000.20,19.1,25.6,,00.0,0636.9,30.9
2021-11-27T22:57:00Z,00000200,41000000,,,,,,,0000.45,0000.54,0000.59,19.1,25.7,,00.0,0636.9,30.9
2021-11-27T22:58:00Z,00000200,61000000,,,,,,,-000.04,-000.04,-000.30,18.8,25.7,,00.0,0636.1,30.9
2021-11-27T22:59:00Z,00000200,21000000,,,,,,,-000.49,-000.55,0000.02,18.8,25.8,,00.0,0636.1,30.9
